sat.trackr.live / text

‹ back to catalog

STARLINK-4490

NORAD 53409 · 2022-097X

PAYLOAD ACTIVE UNKNOWN

§ Identity

Operator
Country
US
Launch date
2022-08-10
Launch site
AFETR
Launch vehicle
Mass (kg)
RCS (m²)

Purposes: comms

External: N2YO · Heavens-Above · Gunter

§ Orbital elements

Epoch: 2026-09-19T15:23:55.375296Z

Period
93.85 min
Inclination
53.1598°
Eccentricity
0.0000946
Mean motion
15.34383909 rev/d
Perigee alt
462.1 km
Apogee alt
463.4 km
Semi-major
6,840.9 km
B*
4.7273e-6
RAAN
298.0751°
Arg perigee
116.1606°
Mean anomaly
243.9494°
Rev number
22,828

§ Raw data

STARLINK-44901 53409U 22097X   26262.64161314 -.00000216  00000+0  47273-5 0  99922 53409  53.1598 298.0751 0000946 116.1606 243.9494 15.34383909228288

JSON: /api/v1/satellites/53409 · /tle

For live sub-satellite position, see the globe view (requires WebGL).

§ Visibility from observer

Set your observer location to see the next 7 days of passes ≥ 10°. The values pass through the URL so the page stays shareable.

No JS? Fill the form by hand. The geolocation button needs JavaScript.